Weather in Ust-Vayen'ga

Russia / Arkhangel'skaya Oblast'     63°00′14″N   42°37′54″E
temp.,
°C
wind,
m/s
gust,
m/s
humid.,
%
clouds,
%
prec.,
mm/h
press.,
hPa
HPBL,
m
16 april, fri
fri1600:00−2nw11955 0.0 103110
03:00−2sw119640 0.0 103216
06:00−2sw13915 0.0 103377
09:00+5wsw35645 0.0 1033480
12:00+8w35585 0.0 10321120
15:00+9nw355819 0.0 10321488
18:00+7nw24785 0.0 103286
21:00+2nnw249235 0.0 103367
17 april, sat
sat1700:00−1nnw129553 0.0 103339
03:00−2wnw129710 0.0 103437
06:000wnw258918 0.0 1034124
09:00+6wnw366824 0.0 1033434
12:00+9wnw475699 0.0 10321110
15:00+10nw475632 0.0 10311391
18:00+9nw37665 0.0 1031334
21:00+4nw388015 0.0 1031204
18 april, sun
sun1800:00+2nnw278575 0.0 1031180
03:00+1n259383 0.0 1033119
06:00+2nne2793100 0.0 1034393
09:00+4ene34655 0.0 1035759
12:00+6ene234515 0.0 10351242
15:00+7ene23385 0.0 10351441
18:00+6ene23485 0.0 1035228
21:00+2e23664 0.0 103650
19 april, mon
mon1900:000ese22741 0.0 103733
03:00−1se23785 0.0 103766
06:000se25725 0.0 1038159
09:00+4sse24475 0.0 1038574
12:00+7sse23390 0.0 10371097
15:00+8sse23360 0.0 10361236
18:00+7se23460 0.0 1035128
21:00+3ese22595 0.0 103414
20 april, tue
tue2000:00+1se22725 0.0 103527
03:000se227693 0.0 103424
06:00+1se2573100 0.0 1034147
09:00+6sse35513 0.0 1033525
12:00+9sse35420 0.0 10311179
15:00+10sse46330 0.0 10301519
18:00+9se373977 0.0 1028621
21:00+4ese2860100 0.0 1027165